| time (UTC) | temp F | wind direction | speed MPH | gust MPH | rain 1hr in | rain 24hr in | rain mn in | humidity % | barometer mb |
| 20260502223505 | 48 | 355 | 5.0 | 15.0 | 0.00 | 0.00 | 0.00 | 47 | 1014.8 |
| 20260502223005 | 48 | 7 | 5.0 | 12.0 | 0.00 | 0.00 | 0.00 | 48 | 1014.8 |
| 20260502222505 | 48 | 4 | 5.0 | 12.0 | 0.00 | 0.00 | 0.00 | 47 | 1014.8 |
| 20260502222005 | 48 | 356 | 5.0 | 12.0 | 0.00 | 0.00 | 0.00 | 48 | 1014.8 |
| 20260502221505 | 48 | 345 | 5.0 | 11.0 | 0.00 | 0.00 | 0.00 | 48 | 1014.9 |
| 20260502221005 | 47 | 337 | 5.0 | 13.0 | 0.00 | 0.00 | 0.00 | 48 | 1014.9 |
| 20260502220505 | 47 | 355 | 5.0 | 11.0 | 0.00 | 0.00 | 0.00 | 49 | 1014.8 |
| 20260502220005 | 47 | 356 | 5.0 | 13.0 | 0.00 | 0.00 | 0.00 | 47 | 1014.9 |
| 20260502215505 | 48 | 341 | 6.0 | 12.0 | 0.00 | 0.00 | 0.00 | 47 | 1014.8 |
| 20260502215006 | 48 | 348 | 6.0 | 15.0 | 0.00 | 0.00 | 0.00 | 48 | 1014.7 |
| 20260502214505 | 47 | 352 | 5.0 | 15.0 | 0.00 | 0.00 | 0.00 | 49 | 1014.8 |
| 20260502214026 | 47 | 346 | 6.0 | 15.0 | 0.00 | 0.00 | 0.00 | 48 | 1014.8 |
| 20260502213506 | 47 | 338 | 5.0 | 12.0 | 0.00 | 0.00 | 0.00 | 48 | 1014.8 |
| 20260502213005 | 47 | 337 | 4.0 | 13.0 | 0.00 | 0.00 | 0.00 | 48 | 1014.8 |
| 20260502212506 | 47 | 350 | 4.0 | 12.0 | 0.00 | 0.00 | 0.00 | 48 | 1014.8 |
| 20260502212027 | 47 | 5 | 4.0 | 12.0 | 0.00 | 0.00 | 0.00 | 47 | 1014.8 |
| 20260502211505 | 47 | 356 | 5.0 | 13.0 | 0.00 | 0.00 | 0.00 | 47 | 1014.9 |
| 20260502211006 | 47 | 344 | 6.0 | 17.0 | 0.00 | 0.00 | 0.00 | 46 | 1014.8 |
| 20260502210505 | 48 | 339 | 5.0 | 12.0 | 0.00 | 0.00 | 0.00 | 47 | 1014.7 |
| 20260502210005 | 48 | 334 | 5.0 | 11.0 | 0.00 | 0.00 | 0.00 | 48 | 1014.8 |
| 20260502205505 | 48 | 340 | 6.0 | 15.0 | 0.00 | 0.00 | 0.00 | 50 | 1014.7 |
| 20260502205005 | 47 | 359 | 5.0 | 12.0 | 0.00 | 0.00 | 0.00 | 51 | 1014.9 |
| 20260502204505 | 47 | 349 | 5.0 | 12.0 | 0.00 | 0.00 | 0.00 | 49 | 1014.9 |
| 20260502204005 | 47 | 345 | 5.0 | 15.0 | 0.00 | 0.00 | 0.00 | 50 | 1015.0 |
| 20260502203526 | 47 | 338 | 6.0 | 15.0 | 0.00 | 0.00 | 0.00 | 49 | 1015.0 |
| 20260502203005 | 48 | 334 | 6.0 | 15.0 | 0.00 | 0.00 | 0.00 | 48 | 1014.9 |
| 20260502202505 | 48 | 347 | 6.0 | 15.0 | 0.00 | 0.00 | 0.00 | 49 | 1015.0 |
| 20260502202026 | 48 | 6 | 5.0 | 12.0 | 0.00 | 0.00 | 0.00 | 50 | 1015.1 |
| 20260502201505 | 47 | 1 | 4.0 | 11.0 | 0.00 | 0.00 | 0.00 | 51 | 1015.0 |
| 20260502201005 | 47 | 337 | 5.0 | 11.0 | 0.00 | 0.00 | 0.00 | 52 | 1015.1 |
| 20260502200505 | 47 | 347 | 6.0 | 11.0 | 0.00 | 0.00 | 0.00 | 50 | 1015.1 |
| 20260502200005 | 48 | 3 | 6.0 | 17.0 | 0.00 | 0.00 | 0.00 | 49 | 1015.2 |
| 20260502195505 | 48 | 5 | 6.0 | 12.0 | 0.00 | 0.00 | 0.00 | 49 | 1015.2 |
| 20260502195027 | 48 | 355 | 6.0 | 20.0 | 0.00 | 0.00 | 0.00 | 49 | 1015.2 |
| 20260502194505 | 48 | 341 | 5.0 | 11.0 | 0.00 | 0.00 | 0.00 | 49 | 1015.2 |
| 20260502194005 | 48 | 341 | 6.0 | 16.0 | 0.00 | 0.00 | 0.00 | 28 | 1015.3 |
| 20260502193505 | 49 | 353 | 6.0 | 13.0 | 0.00 | 0.00 | 0.00 | 48 | 1015.3 |
| 20260502193005 | 50 | 3 | 5.0 | 16.0 | 0.00 | 0.00 | 0.00 | 48 | 1015.3 |
| 20260502192505 | 50 | 4 | 4.0 | 11.0 | 0.00 | 0.00 | 0.00 | 49 | 1015.3 |
| 20260502192005 | 50 | 5 | 4.0 | 9.0 | 0.00 | 0.00 | 0.00 | 51 | 1015.3 |
| 20260502191506 | 49 | 344 | 6.0 | 13.0 | 0.00 | 0.00 | 0.00 | 51 | 1015.4 |
| 20260502191005 | 48 | 331 | 6.0 | 16.0 | 0.00 | 0.00 | 0.00 | 31 | 1015.4 |
| 20260502190505 | 48 | 326 | 5.0 | 13.0 | 0.00 | 0.00 | 0.00 | 30 | 1015.3 |
| 20260502190005 | 48 | 330 | 6.0 | 15.0 | 0.00 | 0.00 | 0.00 | 53 | 1015.4 |
| 20260502185505 | 47 | 355 | 5.0 | 12.0 | 0.00 | 0.00 | 0.00 | 30 | 1015.4 |
| 20260502185005 | 47 | 353 | 4.0 | 12.0 | 0.00 | 0.00 | 0.00 | 52 | 1015.5 |
| 20260502184505 | 47 | 345 | 5.0 | 11.0 | 0.00 | 0.00 | 0.00 | 53 | 1015.5 |
| 20260502184026 | 46 | 5 | 5.0 | 12.0 | 0.00 | 0.00 | 0.00 | 33 | 1015.6 |
| 20260502183505 | 46 | 9 | 5.0 | 12.0 | 0.00 | 0.00 | 0.00 | 53 | 1015.5 |
| 20260502183005 | 46 | 5 | 5.0 | 12.0 | 0.00 | 0.00 | 0.00 | 57 | 1015.5 |
| 20260502182505 | 46 | 8 | 6.0 | 15.0 | 0.00 | 0.00 | 0.00 | 55 | 1015.5 |
| 20260502182005 | 45 | 341 | 7.0 | 15.0 | 0.00 | 0.00 | 0.00 | 56 | 1015.5 |
| 20260502181526 | 45 | 339 | 7.0 | 16.0 | 0.00 | 0.00 | 0.00 | 55 | 1015.5 |
| 20260502181005 | 45 | 354 | 5.0 | 13.0 | 0.00 | 0.00 | 0.00 | 58 | 1015.6 |
| 20260502180505 | 45 | 355 | 5.0 | 12.0 | 0.00 | 0.00 | 0.00 | 59 | 1015.7 |
| 20260502170505 | 45 | 348 | 5.0 | 13.0 | 0.00 | 0.00 | 0.00 | 60 | 1015.6 |
| 20260502164005 | 44 | 350 | 5.0 | 11.0 | 0.00 | 0.00 | 0.00 | 60 | 1015.6 |
| 20260502163505 | 44 | 5 | 6.0 | 12.0 | 0.00 | 0.00 | 0.00 | 59 | 1015.5 |
| 20260502163005 | 44 | 8 | 6.0 | 15.0 | 0.00 | 0.00 | 0.00 | 60 | 1015.6 |
| 20260502162505 | 44 | 359 | 6.0 | 16.0 | 0.00 | 0.00 | 0.00 | 60 | 1015.6 |
| 20260502162005 | 44 | 10 | 5.0 | 13.0 | 0.00 | 0.00 | 0.00 | 61 | 1015.6 |
| 20260502161505 | 44 | 10 | 6.0 | 12.0 | 0.00 | 0.00 | 0.00 | 61 | 1015.6 |
| 20260502161005 | 44 | 352 | 7.0 | 16.0 | 0.00 | 0.00 | 0.00 | 61 | 1015.5 |
| 20260502160505 | 44 | 344 | 6.0 | 13.0 | 0.00 | 0.00 | 0.00 | 38 | 1015.6 |
| 20260502152006 | 44 | 17 | 7.0 | 17.0 | 0.00 | 0.00 | 0.00 | 61 | 1015.6 |
| 20260502151505 | 44 | 360 | 8.0 | 17.0 | 0.00 | 0.00 | 0.00 | 60 | 1015.6 |
| 20260502151005 | 45 | 2 | 7.0 | 19.0 | 0.00 | 0.00 | 0.00 | 61 | 1015.7 |
| 20260502150526 | 44 | 7 | 6.0 | 19.0 | 0.00 | 0.00 | 0.00 | 64 | 1015.4 |
| 20260502130505 | 41 | 6 | 6.0 | 13.0 | 0.00 | 0.00 | 0.00 | 70 | 1015.8 |
| 20260502123527 | 42 | 342 | 4.0 | 13.0 | 0.00 | 0.00 | 0.00 | 71 | 1015.7 |
| 20260502123005 | 42 | 357 | 4.0 | 12.0 | 0.00 | 0.00 | 0.00 | 72 | 1015.7 |
| 20260502122506 | 41 | 16 | 4.0 | 12.0 | 0.00 | 0.00 | 0.00 | 72 | 1015.7 |
| 20260502122005 | 41 | 2 | 4.0 | 13.0 | 0.00 | 0.00 | 0.00 | 73 | 1015.7 |
| 20260502121505 | 40 | 350 | 4.0 | 15.0 | 0.00 | 0.00 | 0.00 | 74 | 1015.7 |
| 20260502121005 | 40 | 357 | 4.0 | 12.0 | 0.00 | 0.00 | 0.00 | 75 | 1015.7 |
| 20260502120505 | 40 | 3 | 3.0 | 11.0 | 0.00 | 0.00 | 0.00 | 77 | 1015.8 |
| 20260502115526 | 38 | 330 | 3.0 | 8.0 | 0.00 | 0.00 | 0.00 | 79 | 1015.8 |
| 20260502115005 | 38 | 319 | 1.0 | 7.0 | 0.00 | 0.00 | 0.00 | 80 | 1015.8 |
| 20260502114526 | 37 | 310 | 2.0 | 5.0 | 0.00 | 0.00 | 0.00 | 81 | 1015.7 |
| 20260502114005 | 37 | 307 | 2.0 | 7.0 | 0.00 | 0.00 | 0.00 | 81 | 1015.8 |
| 20260502113506 | 36 | 321 | 1.0 | 4.0 | 0.00 | 0.00 | 0.00 | 82 | 1015.8 |
| 20260502113005 | 36 | 342 | 1.0 | 5.0 | 0.00 | 0.00 | 0.00 | 82 | 1015.7 |
| 20260502112526 | 35 | 353 | 0.0 | 1.0 | 0.00 | 0.00 | 0.00 | 82 | 1015.7 |
| 20260502112006 | 35 | 353 | 0.0 | 3.0 | 0.00 | 0.00 | 0.00 | 81 | 1015.7 |
| 20260502111505 | 35 | 352 | 0.0 | 1.0 | 0.00 | 0.00 | 0.00 | 82 | 1015.7 |
| 20260502111005 | 35 | 352 | 0.0 | 3.0 | 0.00 | 0.00 | 0.00 | 82 | 1015.6 |
| 20260502110505 | 35 | 352 | 0.0 | 3.0 | 0.00 | 0.00 | 0.00 | 82 | 1015.6 |
| 20260502110005 | 35 | 352 | 0.0 | 3.0 | 0.00 | 0.00 | 0.00 | 82 | 1015.4 |
| 20260502105506 | 35 | 352 | 0.0 | 3.0 | 0.00 | 0.00 | 0.00 | 82 | 1015.5 |
| 20260502105005 | 35 | 352 | 0.0 | 3.0 | 0.00 | 0.00 | 0.00 | 81 | 1015.4 |
| 20260502104526 | 35 | 352 | 0.0 | 3.0 | 0.00 | 0.00 | 0.00 | 81 | 1015.5 |
| 20260502104005 | 35 | 353 | 1.0 | 5.0 | 0.00 | 0.00 | 0.00 | 81 | 1015.5 |
| 20260502103526 | 35 | 353 | 1.0 | 5.0 | 0.00 | 0.00 | 0.00 | 81 | 1015.4 |
| 20260502103005 | 35 | 352 | 0.0 | 3.0 | 0.00 | 0.00 | 0.00 | 81 | 1015.3 |
| 20260502102527 | 35 | 352 | 0.0 | 3.0 | 0.00 | 0.00 | 0.00 | 82 | 1015.4 |
| 20260502102005 | 35 | 0 | 0.0 | 0.0 | 0.00 | 0.00 | 0.00 | 81 | 1015.3 |
| 20260502101526 | 35 | 352 | 0.0 | 0.0 | 0.00 | 0.00 | 0.00 | 81 | 1015.3 |
| 20260502101005 | 35 | 352 | 0.0 | 4.0 | 0.00 | 0.00 | 0.00 | 81 | 1015.4 |
| 20260502100505 | 35 | 352 | 1.0 | 3.0 | 0.00 | 0.00 | 0.00 | 82 | 1015.3 |
| 20260502091505 | 35 | 0 | 0.0 | 0.0 | 0.00 | 0.00 | 0.00 | 82 | 1015.1 |
| 20260502091004 | 34 | 0 | 0.0 | 0.0 | 0.00 | 0.00 | 0.00 | 82 | 1015.0 |
| 20260502090526 | 35 | 353 | 0.0 | 0.0 | 0.00 | 0.00 | 0.00 | 82 | 1015.0 |
| 20260502071526 | 35 | 0 | 0.0 | 0.0 | 0.00 | 0.00 | 0.00 | 83 | 1014.7 |
| 20260502071004 | 35 | 0 | 0.0 | 0.0 | 0.00 | 0.00 | 0.00 | 83 | 1014.8 |
| 20260502070505 | 35 | 0 | 0.0 | 0.0 | 0.00 | 0.00 | 0.00 | 83 | 1014.9 |
| 20260502070005 | 35 | 0 | 0.0 | 0.0 | 0.00 | 0.00 | 0.00 | 83 | 1015.0 |
| 20260502065505 | 35 | 0 | 0.0 | 0.0 | 0.00 | 0.00 | 0.00 | 83 | 1015.0 |
| 20260502065005 | 35 | 0 | 0.0 | 0.0 | 0.00 | 0.00 | 0.00 | 83 | 1015.0 |
| 20260502064505 | 35 | 0 | 0.0 | 0.0 | 0.00 | 0.00 | 0.00 | 83 | 1015.1 |
| 20260502064005 | 35 | 0 | 0.0 | 0.0 | 0.00 | 0.00 | 0.00 | 83 | 1015.0 |
| 20260502063505 | 35 | 0 | 0.0 | 0.0 | 0.00 | 0.00 | 0.00 | 83 | 1015.1 |
| 20260502063005 | 35 | 0 | 0.0 | 0.0 | 0.00 | 0.00 | 0.00 | 83 | 1015.2 |
| 20260502062505 | 35 | 0 | 0.0 | 0.0 | 0.00 | 0.00 | 0.00 | 83 | 1015.0 |
| 20260502062026 | 35 | 0 | 0.0 | 0.0 | 0.00 | 0.00 | 0.00 | 83 | 1015.1 |
| 20260502061505 | 35 | 0 | 0.0 | 0.0 | 0.00 | 0.00 | 0.00 | 83 | 1015.2 |
| 20260502061005 | 35 | 0 | 0.0 | 0.0 | 0.00 | 0.00 | 0.00 | 83 | 1015.3 |
| 20260502060505 | 35 | 0 | 0.0 | 0.0 | 0.00 | 0.00 | 0.00 | 83 | 1015.3 |
| 20260502060005 | 35 | 0 | 0.0 | 0.0 | 0.00 | 0.00 | 0.00 | 83 | 1015.3 |
| 20260502055505 | 35 | 0 | 0.0 | 0.0 | 0.00 | 0.00 | 0.00 | 83 | 1015.2 |
| 20260502055005 | 35 | 0 | 0.0 | 0.0 | 0.00 | 0.00 | 0.00 | 83 | 1015.0 |
| 20260502054505 | 35 | 348 | 0.0 | 0.0 | 0.00 | 0.00 | 0.00 | 83 | 1015.0 |
| 20260502054027 | 35 | 349 | 0.0 | 1.0 | 0.00 | 0.00 | 0.00 | 82 | 1015.2 |
| 20260502053504 | 35 | 349 | 1.0 | 4.0 | 0.00 | 0.00 | 0.00 | 82 | 1015.2 |
| 20260502053026 | 35 | 349 | 1.0 | 4.0 | 0.00 | 0.00 | 0.00 | 82 | 1015.3 |
| 20260502052505 | 35 | 348 | 0.0 | 4.0 | 0.00 | 0.00 | 0.00 | 82 | 1015.4 |
| 20260502052004 | 35 | 348 | 0.0 | 3.0 | 0.00 | 0.00 | 0.00 | 82 | 1015.5 |
| 20260502051526 | 35 | 348 | 0.0 | 1.0 | 0.00 | 0.00 | 0.00 | 81 | 1015.2 |
| 20260502051004 | 35 | 348 | 0.0 | 3.0 | 0.00 | 0.00 | 0.00 | 81 | 1015.1 |
| 20260502050505 | 35 | 348 | 0.0 | 3.0 | 0.00 | 0.00 | 0.00 | 81 | 1015.2 |
| 20260502050005 | 35 | 348 | 1.0 | 4.0 | 0.00 | 0.00 | 0.00 | 81 | 1015.4 |
| 20260502045505 | 34 | 349 | 2.0 | 5.0 | 0.00 | 0.00 | 0.00 | 81 | 1015.4 |
| 20260502045006 | 34 | 5 | 3.0 | 7.0 | 0.00 | 0.00 | 0.00 | 80 | 1015.3 |
| 20260502044505 | 34 | 24 | 2.0 | 7.0 | 0.00 | 0.00 | 0.00 | 80 | 1015.2 |
| 20260502044005 | 34 | 30 | 1.0 | 4.0 | 0.00 | 0.00 | 0.00 | 79 | 1014.9 |
| 20260502043505 | 34 | 29 | 1.0 | 5.0 | 0.00 | 0.00 | 0.00 | 78 | 1014.9 |
| 20260502043005 | 34 | 30 | 1.0 | 3.0 | 0.00 | 0.00 | 0.00 | 77 | 1015.1 |
| 20260502042504 | 34 | 30 | 0.0 | 3.0 | 0.00 | 0.00 | 0.00 | 75 | 1015.2 |
| 20260502042005 | 34 | 30 | 1.0 | 3.0 | 0.00 | 0.00 | 0.00 | 74 | 1015.1 |
| 20260502041526 | 34 | 30 | 1.0 | 4.0 | 0.00 | 0.00 | 0.00 | 74 | 1015.2 |
| 20260502041007 | 34 | 29 | 0.0 | 1.0 | 0.00 | 0.00 | 0.00 | 73 | 1015.1 |
| 20260502040526 | 34 | 30 | 0.0 | 0.0 | 0.00 | 0.00 | 0.00 | 73 | 1015.0 |
| 20260502040005 | 34 | 29 | 1.0 | 3.0 | 0.00 | 0.00 | 0.00 | 73 | 1015.0 |
| 20260502035505 | 35 | 29 | 1.0 | 4.0 | 0.00 | 0.00 | 0.00 | 72 | 1015.0 |
| 20260502035005 | 35 | 29 | 1.0 | 4.0 | 0.00 | 0.00 | 0.00 | 72 | 1015.0 |
| 20260502034504 | 35 | 29 | 1.0 | 4.0 | 0.00 | 0.00 | 0.00 | 72 | 1014.9 |
| 20260502034007 | 35 | 29 | 0.0 | 3.0 | 0.00 | 0.00 | 0.00 | 72 | 1015.0 |
| 20260502033505 | 35 | 30 | 0.0 | 1.0 | 0.00 | 0.00 | 0.00 | 71 | 1015.0 |
| 20260502033005 | 35 | 32 | 0.0 | 1.0 | 0.00 | 0.00 | 0.00 | 71 | 1015.0 |
| 20260502032504 | 35 | 30 | 0.0 | 3.0 | 0.00 | 0.00 | 0.00 | 71 | 1015.0 |
| 20260502032005 | 35 | 29 | 1.0 | 3.0 | 0.00 | 0.00 | 0.00 | 71 | 1015.0 |
| 20260502031505 | 35 | 30 | 1.0 | 3.0 | 0.00 | 0.00 | 0.00 | 71 | 1015.0 |
| 20260502031005 | 35 | 30 | 1.0 | 4.0 | 0.00 | 0.00 | 0.00 | 70 | 1015.1 |
| 20260502030504 | 35 | 30 | 1.0 | 3.0 | 0.00 | 0.00 | 0.00 | 70 | 1015.0 |
| 20260502030005 | 35 | 31 | 0.0 | 3.0 | 0.00 | 0.00 | 0.00 | 70 | 1015.0 |
| 20260502025505 | 35 | 31 | 0.0 | 3.0 | 0.00 | 0.00 | 0.00 | 70 | 1015.0 |
| 20260502025004 | 35 | 31 | 0.0 | 0.0 | 0.00 | 0.00 | 0.00 | 70 | 1014.9 |
| 20260502024505 | 36 | 31 | 0.0 | 1.0 | 0.00 | 0.00 | 0.00 | 70 | 1014.9 |
| 20260502024005 | 36 | 31 | 0.0 | 1.0 | 0.00 | 0.00 | 0.00 | 70 | 1014.9 |
| 20260502023505 | 36 | 31 | 0.0 | 1.0 | 0.00 | 0.00 | 0.00 | 70 | 1015.0 |
| 20260502023004 | 36 | 31 | 1.0 | 3.0 | 0.00 | 0.00 | 0.00 | 70 | 1014.9 |
| 20260502022505 | 36 | 31 | 1.0 | 3.0 | 0.00 | 0.00 | 0.00 | 70 | 1014.9 |
| 20260502022004 | 36 | 31 | 1.0 | 4.0 | 0.00 | 0.00 | 0.00 | 70 | 1014.9 |
| 20260502021526 | 36 | 31 | 2.0 | 4.0 | 0.00 | 0.00 | 0.00 | 69 | 1014.9 |
| 20260502021005 | 36 | 32 | 2.0 | 5.0 | 0.00 | 0.00 | 0.00 | 69 | 1015.0 |
| 20260502020504 | 37 | 32 | 2.0 | 4.0 | 0.00 | 0.00 | 0.00 | 69 | 1014.9 |
| 20260502020004 | 37 | 33 | 2.0 | 4.0 | 0.00 | 0.00 | 0.00 | 68 | 1014.9 |
| 20260502015504 | 37 | 33 | 2.0 | 4.0 | 0.00 | 0.00 | 0.00 | 68 | 1014.9 |
| 20260502015004 | 37 | 33 | 2.0 | 4.0 | 0.00 | 0.00 | 0.00 | 68 | 1014.8 |
| 20260502014504 | 37 | 32 | 2.0 | 4.0 | 0.00 | 0.00 | 0.00 | 67 | 1014.8 |
| 20260502014004 | 38 | 32 | 2.0 | 4.0 | 0.00 | 0.00 | 0.00 | 67 | 1014.7 |
| 20260502013526 | 38 | 32 | 1.0 | 4.0 | 0.00 | 0.00 | 0.00 | 66 | 1014.6 |
| 20260502013004 | 38 | 32 | 2.0 | 3.0 | 0.00 | 0.00 | 0.00 | 66 | 1014.6 |
| 20260502012504 | 38 | 33 | 2.0 | 5.0 | 0.00 | 0.00 | 0.00 | 66 | 1014.5 |
| 20260502012004 | 38 | 32 | 1.0 | 4.0 | 0.00 | 0.00 | 0.00 | 64 | 1014.5 |
| 20260502011505 | 39 | 32 | 1.0 | 5.0 | 0.00 | 0.00 | 0.00 | 64 | 1014.4 |
| 20260502011005 | 39 | 31 | 1.0 | 4.0 | 0.00 | 0.00 | 0.00 | 64 | 1014.4 |
| 20260502010526 | 39 | 31 | 2.0 | 5.0 | 0.00 | 0.00 | 0.00 | 63 | 1014.3 |
| 20260502010026 | 39 | 31 | 2.0 | 7.0 | 0.00 | 0.00 | 0.00 | 63 | 1014.1 |
| 20260502005526 | 39 | 32 | 3.0 | 7.0 | 0.00 | 0.00 | 0.00 | 62 | 1013.9 |
| 20260502005025 | 39 | 33 | 3.0 | 8.0 | 0.00 | 0.00 | 0.00 | 62 | 1014.0 |
| 20260502004505 | 40 | 33 | 3.0 | 8.0 | 0.00 | 0.00 | 0.00 | 62 | 1013.8 |
| 20260502004004 | 40 | 30 | 4.0 | 8.0 | 0.00 | 0.00 | 0.00 | 61 | 1013.8 |
| 20260502003504 | 40 | 26 | 4.0 | 12.0 | 0.00 | 0.00 | 0.00 | 61 | 1013.8 |
| 20260502003004 | 40 | 25 | 3.0 | 11.0 | 0.00 | 0.00 | 0.00 | 61 | 1013.8 |
| 20260502002504 | 40 | 20 | 4.0 | 7.0 | 0.00 | 0.00 | 0.00 | 60 | 1013.9 |
| 20260502002005 | 41 | 16 | 5.0 | 12.0 | 0.00 | 0.00 | 0.00 | 60 | 1013.8 |
| 20260502001504 | 41 | 19 | 4.0 | 11.0 | 0.00 | 0.00 | 0.00 | 59 | 1013.7 |
| 20260502001004 | 41 | 19 | 4.0 | 11.0 | 0.00 | 0.00 | 0.00 | 59 | 1013.6 |
| 20260502000505 | 41 | 17 | 6.0 | 13.0 | 0.00 | 0.00 | 0.00 | 58 | 1013.5 |
| 20260502000004 | 41 | 18 | 7.0 | 19.0 | 0.00 | 0.00 | 0.00 | 58 | 1013.6 |
| 20260501235504 | 42 | 18 | 7.0 | 16.0 | 0.00 | 0.00 | 0.00 | 58 | 1013.6 |
| 20260501235004 | 42 | 16 | 5.0 | 13.0 | 0.00 | 0.00 | 0.00 | 60 | 1013.5 |
| 20260501234505 | 42 | 16 | 4.0 | 17.0 | 0.00 | 0.00 | 0.00 | 61 | 1013.4 |
| 20260501234004 | 42 | 15 | 4.0 | 11.0 | 0.00 | 0.00 | 0.00 | 61 | 1013.3 |
| 20260501233504 | 43 | 14 | 4.0 | 9.0 | 0.00 | 0.00 | 0.00 | 61 | 1013.5 |
| 20260501233005 | 43 | 8 | 4.0 | 11.0 | 0.00 | 0.00 | 0.00 | 61 | 1013.5 |
| 20260501232504 | 43 | 357 | 4.0 | 12.0 | 0.00 | 0.00 | 0.00 | 61 | 1013.5 |
| 20260501232004 | 43 | 350 | 4.0 | 9.0 | 0.00 | 0.00 | 0.00 | 60 | 1013.5 |
| 20260501231504 | 44 | 2 | 5.0 | 13.0 | 0.00 | 0.00 | 0.00 | 59 | 1013.4 |
| 20260501231004 | 44 | 4 | 5.0 | 11.0 | 0.00 | 0.00 | 0.00 | 59 | 1013.5 |
| 20260501230504 | 44 | 357 | 4.0 | 17.0 | 0.00 | 0.00 | 0.00 | 59 | 1013.4 |
| 20260501230004 | 44 | 1 | 4.0 | 8.0 | 0.00 | 0.00 | 0.00 | 59 | 1013.3 |
| 20260501225525 | 44 | 4 | 5.0 | 13.0 | 0.00 | 0.00 | 0.00 | 58 | 1013.4 |
| 20260501225025 | 44 | 3 | 6.0 | 13.0 | 0.00 | 0.00 | 0.00 | 59 | 1013.4 |
| 20260501224505 | 44 | 360 | 7.0 | 13.0 | 0.00 | 0.00 | 0.00 | 59 | 1013.3 |
| 20260501224005 | 45 | 2 | 6.0 | 15.0 | 0.00 | 0.00 | 0.00 | 59 | 1013.4 |